PPR-pyyntö

Ennakkolupa on pakollinen lentoonlähtöjä ja laskuja varten. Pyydä ennakkolupa tästä.

Laskukierrosvaraus

Tee ensin PPR-pyyntö, sitten vasta laskukierrosvaraus. Hinta 5 € / 15 min.

Aerodrome Info

Updated 25 FEB 2018 17:45 LT

  • RWY, TWYs APRs ploughed and covered by snow.
  • Airport usable with caution, winter conditions.
  • Preferred runway RWY36

Contact duty officer at +358 20 7545 129 for more information.

Weather


Helsinki Malmi lentokenttä
AWS ILHF 251700Z AUTO 36005KT CAVOK M07/M10 Q1033=

METAR EFHK 251650Z 35007KT 9999 FEW025 M07/M10 Q1033 NOSIG=
TAF EFHK 251431Z 2515/2615 01008KT 9999 FEW020 BKN060 TEMPO 2518/2615 4000 -SN=

Helsinki-Malmin lentoasema

Tervetuloa Helsinki-Malmin lentokentälle

Malmin lentokenttäyhdistys ry on yleishyödyllinen yhdistys, joka toimii Suomen vilkkaimman yleisilmailukentän, Helsinki-Malmin operaattorina. Yhdistyksen toiminnassa ovat mukana kentällä toimivat yhteisöt sekä suuri joukko yleisilmailijoita.

Malmin lentokentän toiminta rahoitetaan jäsen- ja kausikorttimaksuin. Ole mukana jatkamassa Malmin lentotoimintaa ja liity jäseneksi!